Location: Mascot Post Office (historical)
(40.2645°N, 99.5462°W)
Time: 17:26:42
(UTC+00:00)

Hubble Space Telescope - Pass Details

Date: 14 July 2020
Orbit: 536 x 540 km, 28.5° (Epoch: 05 August)

Event Time Altitude Azimuth Distance (km) Brightness Sun altitude
Rises 03:17:00 0° 244° (WSW) 2,669 4.6 -11.6°
Reaches altitude 10° 03:20:02 10° 221° (SW) 1,779 3.4 -12.0°
Maximum altitude 03:22:25 15° 185° (S) 1,486 2.7 -12.3°
Enters shadow 03:23:25 14° 169° (SSE) 1,541 2.6 -12.5°
